Time,TemperatureF,DewpointF,PressureIn,WindDirection,WindDirectionDegrees,WindSpeedMPH,WindSpeedGustMPH,Humidity,HourlyPrecipIn,Conditions,Clouds,dailyrainin,SoftwareType,DateUTC
2013-08-07 00:00:00,77.0,71.8,29.75,South,180,0.0,0.0,84,0.00,OVC,FEW,0.00,WeatherDisplay:10.37,2013-08-07 05:00:00,
2013-08-07 00:06:00,76.8,71.6,29.76,North,0,0.0,0.0,84,0.00,OVC,FEW,0.00,WeatherDisplay:10.37,2013-08-07 05:06:00,
2013-08-07 00:12:00,76.6,71.4,29.76,North,0,0.0,0.0,84,0.00,OVC,FEW,0.00,WeatherDisplay:10.37,2013-08-07 05:12:00,
2013-08-07 00:17:00,76.3,71.1,29.76,North,0,0.0,0.0,84,0.00,OVC,FEW,0.00,WeatherDisplay:10.37,2013-08-07 05:17:00,
2013-08-07 00:23:00,76.1,70.9,29.76,SE,135,0.0,0.0,84,0.00,OVC,FEW,0.00,WeatherDisplay:10.37,2013-08-07 05:23:00,
2013-08-07 00:28:00,76.1,70.9,29.77,WSW,248,0.0,0.0,84,0.00,OVC,FEW,0.00,WeatherDisplay:10.37,2013-08-07 05:28:00,
2013-08-07 00:34:00,76.1,70.9,29.77,West,270,0.0,0.0,84,0.00,OVC,FEW,0.00,WeatherDisplay:10.37,2013-08-07 05:34:00,
2013-08-07 00:40:00,75.7,70.6,29.77,SW,225,0.0,0.0,84,0.00,OVC,FEW,0.00,WeatherDisplay:10.37,2013-08-07 05:40:00,
2013-08-07 00:45:00,76.1,70.9,29.76,South,180,0.0,0.0,84,0.00,OVC,FEW,0.00,WeatherDisplay:10.37,2013-08-07 05:45:00,
2013-08-07 00:51:00,76.1,70.9,29.76,South,180,0.0,0.0,84,0.00,OVC,FEW,0.00,WeatherDisplay:10.37,2013-08-07 05:51:00,
2013-08-07 00:56:00,76.3,71.1,29.75,West,270,0.0,0.0,84,0.00,OVC,FEW,0.00,WeatherDisplay:10.37,2013-08-07 05:56:00,
2013-08-07 01:02:00,76.3,71.1,29.75,North,0,0.0,0.0,84,0.00,OVC,FEW,0.00,WeatherDisplay:10.37,2013-08-07 06:02:00,
2013-08-07 01:08:00,76.3,71.1,29.75,SW,225,0.0,0.0,84,0.00,OVC,FEW,0.00,WeatherDisplay:10.37,2013-08-07 06:08:00,
2013-08-07 01:13:00,76.1,70.9,29.75,SW,225,0.0,0.0,84,0.00,OVC,FEW,0.00,WeatherDisplay:10.37,2013-08-07 06:13:00,
2013-08-07 01:19:00,75.9,70.7,29.76,NW,315,0.0,0.0,84,0.00,OVC,FEW,0.00,WeatherDisplay:10.37,2013-08-07 06:19:00,
2013-08-07 01:24:00,75.9,70.7,29.75,West,270,0.0,0.0,84,0.00,OVC,FEW,0.00,WeatherDisplay:10.37,2013-08-07 06:24:00,
2013-08-07 01:30:00,75.6,70.4,29.76,South,180,0.0,0.0,84,0.00,OVC,FEW,0.00,WeatherDisplay:10.37,2013-08-07 06:30:00,
2013-08-07 01:36:00,75.7,70.6,29.76,SW,225,0.0,0.0,84,0.00,OVC,FEW,0.00,WeatherDisplay:10.37,2013-08-07 06:36:00,
2013-08-07 01:41:00,75.7,70.6,29.77,South,180,0.0,0.0,84,0.00,OVC,FEW,0.00,WeatherDisplay:10.37,2013-08-07 06:41:00,
2013-08-07 01:47:00,75.4,70.2,29.76,SW,225,0.0,0.0,84,0.00,OVC,FEW,0.00,WeatherDisplay:10.37,2013-08-07 06:47:00,
2013-08-07 01:52:00,75.7,70.6,29.76,SW,225,0.0,0.0,84,0.00,OVC,FEW,0.00,WeatherDisplay:10.37,2013-08-07 06:52:00,
2013-08-07 01:58:00,75.6,70.4,29.76,SW,225,0.0,0.0,84,0.00,OVC,FEW,0.00,WeatherDisplay:10.37,2013-08-07 06:58:00,
2013-08-07 02:04:00,75.6,70.4,29.76,SW,225,0.0,0.0,84,0.00,OVC,FEW,0.00,WeatherDisplay:10.37,2013-08-07 07:04:00,
2013-08-07 02:09:00,75.6,70.4,29.76,North,0,0.0,0.0,84,0.00,CLR,FEW,0.00,WeatherDisplay:10.37,2013-08-07 07:09:00,
2013-08-07 02:15:00,75.4,70.2,29.76,South,180,0.0,0.0,84,0.00,OVC,FEW,0.00,WeatherDisplay:10.37,2013-08-07 07:15:00,
2013-08-07 02:20:00,75.4,70.2,29.76,SW,225,0.0,0.0,84,0.00,OVC,FEW,0.00,WeatherDisplay:10.37,2013-08-07 07:20:00,
2013-08-07 02:26:00,75.2,70.0,29.76,North,0,0.0,0.0,84,0.00,OVC,FEW,0.00,WeatherDisplay:10.37,2013-08-07 07:26:00,
2013-08-07 02:32:00,75.2,70.0,29.76,SW,225,0.0,0.0,84,0.00,OVC,FEW,0.00,WeatherDisplay:10.37,2013-08-07 07:32:00,
2013-08-07 02:37:00,75.2,70.0,29.76,South,180,0.0,0.0,84,0.00,OVC,FEW,0.00,WeatherDisplay:10.37,2013-08-07 07:37:00,
2013-08-07 02:43:00,75.2,70.0,29.76,SW,225,0.0,0.0,84,0.00,OVC,FEW,0.00,WeatherDisplay:10.37,2013-08-07 07:43:00,
2013-08-07 02:48:00,75.2,70.0,29.75,South,180,0.0,0.0,84,0.00,OVC,FEW,0.00,WeatherDisplay:10.37,2013-08-07 07:48:00,
2013-08-07 02:54:00,75.2,70.0,29.75,SW,225,0.0,0.0,84,0.00,OVC,FEW,0.00,WeatherDisplay:10.37,2013-08-07 07:54:00,
2013-08-07 03:00:00,75.4,70.2,29.75,North,0,0.0,0.0,84,0.00,OVC,FEW,0.00,WeatherDisplay:10.37,2013-08-07 08:00:00,
2013-08-07 03:05:00,75.0,69.9,29.75,SW,225,0.0,0.0,84,0.00,OVC,FEW,0.00,WeatherDisplay:10.37,2013-08-07 08:05:00,
2013-08-07 03:11:00,75.2,70.0,29.75,SW,225,0.0,0.0,84,0.00,OVC,FEW,0.00,WeatherDisplay:10.37,2013-08-07 08:11:00,
2013-08-07 03:16:00,75.0,69.9,29.75,NW,315,0.0,0.0,84,0.00,OVC,FEW,0.00,WeatherDisplay:10.37,2013-08-07 08:16:00,
2013-08-07 03:22:00,75.0,69.9,29.74,East,90,0.0,0.0,84,0.00,OVC,FEW,0.00,WeatherDisplay:10.37,2013-08-07 08:22:00,
2013-08-07 03:28:00,74.8,69.7,29.74,East,90,0.0,0.0,84,0.00,OVC,FEW,0.00,WeatherDisplay:10.37,2013-08-07 08:28:00,
2013-08-07 03:33:00,74.7,69.5,29.74,SW,225,0.0,0.0,84,0.00,OVC,FEW,0.00,WeatherDisplay:10.37,2013-08-07 08:33:00,
2013-08-07 03:39:00,74.7,69.5,29.75,West,270,0.0,0.0,84,0.00,OVC,FEW,0.00,WeatherDisplay:10.37,2013-08-07 08:39:00,
2013-08-07 03:44:00,74.7,69.5,29.75,SW,225,0.0,0.0,84,0.00,OVC,FEW,0.00,WeatherDisplay:10.37,2013-08-07 08:44:00,
2013-08-07 03:50:00,74.7,69.5,29.74,West,270,0.0,0.0,84,0.00,OVC,FEW,0.00,WeatherDisplay:10.37,2013-08-07 08:50:00,
2013-08-07 03:56:00,74.5,69.3,29.74,South,180,0.0,0.0,84,0.00,OVC,FEW,0.00,WeatherDisplay:10.37,2013-08-07 08:56:00,
2013-08-07 04:01:00,74.5,69.3,29.74,SW,225,0.0,0.0,84,0.00,OVC,FEW,0.00,WeatherDisplay:10.37,2013-08-07 09:01:00,
2013-08-07 04:07:00,74.5,69.3,29.73,South,180,0.0,0.0,84,0.00,OVC,FEW,0.00,WeatherDisplay:10.37,2013-08-07 09:07:00,
2013-08-07 04:12:00,74.3,69.1,29.73,SW,225,0.0,0.0,84,0.00,OVC,FEW,0.00,WeatherDisplay:10.37,2013-08-07 09:12:00,
2013-08-07 04:17:00,74.1,69.0,29.73,SW,225,0.0,0.0,84,0.00,OVC,FEW,0.00,WeatherDisplay:10.37,2013-08-07 09:17:00,
2013-08-07 04:23:00,73.9,68.8,29.73,West,270,0.0,0.0,84,0.00,OVC,FEW,0.00,WeatherDisplay:10.37,2013-08-07 09:23:00,
2013-08-07 04:28:00,73.8,68.6,29.73,NW,315,0.0,0.0,84,0.00,OVC,FEW,0.00,WeatherDisplay:10.37,2013-08-07 09:28:00,
2013-08-07 04:34:00,73.6,68.4,29.74,West,270,0.0,0.0,84,0.00,OVC,FEW,0.00,WeatherDisplay:10.37,2013-08-07 09:34:00,
2013-08-07 04:40:00,73.6,68.4,29.74,North,0,0.0,0.0,84,0.00,OVC,FEW,0.00,WeatherDisplay:10.37,2013-08-07 09:40:00,
2013-08-07 04:45:00,73.4,68.3,29.74,North,0,0.0,0.0,84,0.00,OVC,FEW,0.00,WeatherDisplay:10.37,2013-08-07 09:45:00,
2013-08-07 04:51:00,73.4,68.3,29.74,SW,225,0.0,0.0,84,0.00,OVC,FEW,0.00,WeatherDisplay:10.37,2013-08-07 09:51:00,
2013-08-07 04:56:00,73.4,68.3,29.75,South,180,0.0,0.0,84,0.00,OVC,FEW,0.00,WeatherDisplay:10.37,2013-08-07 09:56:00,
2013-08-07 05:02:00,73.0,67.9,29.74,South,180,0.0,0.0,84,0.00,OVC,FEW,0.00,WeatherDisplay:10.37,2013-08-07 10:02:00,
2013-08-07 05:08:00,73.0,67.9,29.74,South,180,0.0,0.0,84,0.00,OVC,FEW,0.00,WeatherDisplay:10.37,2013-08-07 10:08:00,
2013-08-07 05:13:00,72.9,67.7,29.74,South,180,0.0,0.0,84,0.00,OVC,FEW,0.00,WeatherDisplay:10.37,2013-08-07 10:13:00,
2013-08-07 05:19:00,72.7,67.6,29.74,SW,225,0.0,0.0,84,0.00,OVC,FEW,0.00,WeatherDisplay:10.37,2013-08-07 10:19:00,
2013-08-07 05:24:00,72.5,67.4,29.74,North,0,0.0,0.0,84,0.00,OVC,FEW,0.00,WeatherDisplay:10.37,2013-08-07 10:24:00,
2013-08-07 05:30:00,72.5,67.4,29.74,SW,225,0.0,0.0,84,0.00,OVC,FEW,0.00,WeatherDisplay:10.37,2013-08-07 10:30:00,
2013-08-07 05:36:00,72.7,67.6,29.73,SW,225,0.0,0.0,84,0.00,OVC,FEW,0.00,WeatherDisplay:10.37,2013-08-07 10:36:00,
2013-08-07 05:41:00,72.7,67.6,29.73,NE,45,0.0,0.0,84,0.00,OVC,FEW,0.00,WeatherDisplay:10.37,2013-08-07 10:41:00,
2013-08-07 05:47:00,72.7,67.6,29.74,NW,315,0.0,0.0,84,0.00,OVC,FEW,0.00,WeatherDisplay:10.37,2013-08-07 10:47:00,
2013-08-07 05:52:00,72.5,67.4,29.73,NE,45,0.0,0.0,84,0.00,OVC,FEW,0.00,WeatherDisplay:10.37,2013-08-07 10:52:00,
2013-08-07 05:58:00,72.5,67.4,29.74,NE,45,0.0,0.0,84,0.00,OVC,FEW,0.00,WeatherDisplay:10.37,2013-08-07 10:58:00,
2013-08-07 06:04:00,72.3,67.2,29.75,NE,45,0.0,0.0,84,0.00,OVC,FEW,0.00,WeatherDisplay:10.37,2013-08-07 11:04:00,
2013-08-07 06:09:00,72.3,67.2,29.75,NE,45,0.0,0.0,84,0.00,OVC,FEW,0.00,WeatherDisplay:10.37,2013-08-07 11:09:00,
2013-08-07 06:15:00,72.1,67.0,29.76,NE,45,0.0,0.0,84,0.00,OVC,FEW,0.00,WeatherDisplay:10.37,2013-08-07 11:15:00,
2013-08-07 06:20:00,72.3,67.2,29.76,SW,225,0.0,0.0,84,0.00,OVC,FEW,0.00,WeatherDisplay:10.37,2013-08-07 11:20:00,
2013-08-07 06:26:00,72.5,67.4,29.76,SW,225,0.0,0.0,84,0.00,OVC,FEW,0.00,WeatherDisplay:10.37,2013-08-07 11:26:00,
2013-08-07 06:32:00,72.7,67.6,29.76,South,180,0.0,0.0,84,0.00,OVC,FEW,0.00,WeatherDisplay:10.37,2013-08-07 11:32:00,
2013-08-07 06:37:00,72.9,67.7,29.77,South,180,0.0,0.0,84,0.00,OVC,FEW,0.00,WeatherDisplay:10.37,2013-08-07 11:37:00,
2013-08-07 06:43:00,72.9,67.7,29.77,South,180,0.0,0.0,84,0.00,OVC,FEW,0.00,WeatherDisplay:10.37,2013-08-07 11:43:00,
2013-08-07 06:48:00,73.0,67.9,29.77,SW,225,0.0,0.0,84,0.00,OVC,FEW,0.00,WeatherDisplay:10.37,2013-08-07 11:48:00,
2013-08-07 06:54:00,73.2,68.1,29.77,SW,225,0.0,0.0,84,0.00,OVC,FEW,0.00,WeatherDisplay:10.37,2013-08-07 11:54:00,
2013-08-07 07:00:00,73.4,68.3,29.77,South,180,0.0,0.0,84,0.00,OVC,FEW,0.00,WeatherDisplay:10.37,2013-08-07 12:00:00,
2013-08-07 07:05:00,73.6,68.4,29.77,SW,225,0.0,0.0,84,0.00,OVC,FEW,0.00,WeatherDisplay:10.37,2013-08-07 12:05:00,
2013-08-07 07:11:00,73.8,68.6,29.77,South,180,0.0,0.0,84,0.00,OVC,FEW,0.00,WeatherDisplay:10.37,2013-08-07 12:11:00,
2013-08-07 07:16:00,73.9,68.8,29.77,SW,225,0.0,0.0,84,0.00,OVC,FEW,0.00,WeatherDisplay:10.37,2013-08-07 12:16:00,
2013-08-07 07:22:00,74.1,69.0,29.78,South,180,0.0,0.0,84,0.00,OVC,FEW,0.00,WeatherDisplay:10.37,2013-08-07 12:22:00,
2013-08-07 07:28:00,74.5,69.3,29.79,SW,225,0.0,0.0,84,0.00,OVC,FEW,0.00,WeatherDisplay:10.37,2013-08-07 12:28:00,
2013-08-07 07:33:00,74.7,69.5,29.78,South,180,0.0,0.0,84,0.00,OVC,FEW,0.00,WeatherDisplay:10.37,2013-08-07 12:33:00,
2013-08-07 07:39:00,74.8,69.7,29.78,SW,225,0.0,0.0,84,0.00,OVC,FEW,0.00,WeatherDisplay:10.37,2013-08-07 12:39:00,
2013-08-07 07:44:00,75.0,69.9,29.79,SE,135,0.0,0.0,84,0.00,OVC,FEW,0.00,WeatherDisplay:10.37,2013-08-07 12:44:00,
2013-08-07 07:50:00,75.4,70.2,29.79,SW,225,0.0,0.0,84,0.00,OVC,FEW,0.00,WeatherDisplay:10.37,2013-08-07 12:50:00,
2013-08-07 07:56:00,75.6,70.4,29.79,SE,135,0.0,0.0,84,0.00,OVC,FEW,0.00,WeatherDisplay:10.37,2013-08-07 12:56:00,
2013-08-07 08:01:00,75.7,70.6,29.78,SW,225,0.0,0.0,84,0.00,OVC,FEW,0.00,WeatherDisplay:10.37,2013-08-07 13:01:00,
2013-08-07 08:07:00,76.3,71.1,29.78,West,270,0.0,0.0,84,0.00,OVC,FEW,0.00,WeatherDisplay:10.37,2013-08-07 13:07:00,
2013-08-07 08:12:00,76.6,71.4,29.78,SW,225,0.0,0.0,84,0.00,OVC,FEW,0.00,WeatherDisplay:10.37,2013-08-07 13:12:00,
2013-08-07 08:18:00,77.2,72.0,29.77,NW,315,0.0,0.0,84,0.00,OVC,FEW,0.00,WeatherDisplay:10.37,2013-08-07 13:18:00,
2013-08-07 08:24:00,77.7,72.5,29.78,NW,315,0.0,0.0,84,0.00,OVC,FEW,0.00,WeatherDisplay:10.37,2013-08-07 13:24:00,
2013-08-07 08:29:00,77.7,72.5,29.77,NW,315,0.0,0.0,84,0.00,OVC,FEW,0.00,WeatherDisplay:10.37,2013-08-07 13:29:00,
2013-08-07 08:35:00,78.1,72.8,29.77,NW,315,0.0,0.0,84,0.00,OVC,FEW,0.00,WeatherDisplay:10.37,2013-08-07 13:35:00,
2013-08-07 08:40:00,78.3,73.0,29.77,West,270,0.0,0.0,84,0.00,OVC,FEW,0.00,WeatherDisplay:10.37,2013-08-07 13:40:00,
2013-08-07 08:46:00,78.6,73.4,29.77,NW,315,0.0,0.0,84,0.00,OVC,FEW,0.00,WeatherDisplay:10.37,2013-08-07 13:46:00,
2013-08-07 08:52:00,78.8,73.6,29.77,SW,225,0.0,0.0,84,0.00,OVC,FEW,0.00,WeatherDisplay:10.37,2013-08-07 13:52:00,
2013-08-07 08:57:00,79.0,73.7,29.77,SSW,202,0.0,0.0,84,0.00,OVC,FEW,0.00,WeatherDisplay:10.37,2013-08-07 13:57:00,
2013-08-07 09:03:00,79.5,74.3,29.77,SW,225,0.0,0.0,84,0.00,OVC,FEW,0.00,WeatherDisplay:10.37,2013-08-07 14:03:00,
2013-08-07 09:08:00,80.4,75.1,29.77,West,270,0.0,0.0,84,0.00,OVC,FEW,0.00,WeatherDisplay:10.37,2013-08-07 14:08:00,
2013-08-07 09:14:00,82.4,76.7,29.77,SSE,158,0.0,0.0,83,0.00,OVC,FEW,0.00,WeatherDisplay:10.37,2013-08-07 14:14:00,
2013-08-07 09:20:00,83.8,76.6,29.77,NW,315,0.0,0.0,79,0.00,OVC,FEW,0.00,WeatherDisplay:10.37,2013-08-07 14:20:00,
2013-08-07 09:25:00,84.4,76.0,29.77,West,270,0.0,0.0,76,0.00,OVC,FEW,0.00,WeatherDisplay:10.37,2013-08-07 14:25:00,
2013-08-07 09:31:00,85.5,76.2,29.78,North,0,0.0,0.0,74,0.00,OVC,FEW,0.00,WeatherDisplay:10.37,2013-08-07 14:31:00,
2013-08-07 09:36:00,85.3,74.4,29.78,NW,315,0.0,0.0,70,0.00,OVC,FEW,0.00,WeatherDisplay:10.37,2013-08-07 14:36:00,
2013-08-07 09:42:00,83.7,74.5,29.79,NW,315,0.0,0.0,74,0.00,OVC,FEW,0.00,WeatherDisplay:10.37,2013-08-07 14:42:00,
2013-08-07 09:48:00,84.4,75.2,29.79,South,180,0.0,0.0,74,0.00,OVC,FEW,0.00,WeatherDisplay:10.37,2013-08-07 14:48:00,
2013-08-07 09:53:00,85.6,75.2,29.79,East,90,0.0,0.0,71,0.00,OVC,FEW,0.00,WeatherDisplay:10.37,2013-08-07 14:53:00,
2013-08-07 09:59:00,86.5,75.2,29.80,NW,315,0.0,0.0,69,0.00,OVC,FEW,0.00,WeatherDisplay:10.37,2013-08-07 14:59:00,
2013-08-07 10:04:00,87.3,74.5,29.80,North,0,0.0,0.0,66,0.00,OVC,FEW,0.00,WeatherDisplay:10.37,2013-08-07 15:04:00,
2013-08-07 10:10:00,86.7,73.1,29.80,NW,315,0.0,0.0,64,0.00,OVC,FEW,0.00,WeatherDisplay:10.37,2013-08-07 15:10:00,
2013-08-07 10:16:00,85.5,73.7,29.79,NW,315,0.0,0.0,68,0.00,OVC,FEW,0.00,WeatherDisplay:10.37,2013-08-07 15:16:00,
2013-08-07 10:21:00,85.8,74.9,29.79,West,270,0.0,0.0,70,0.00,OVC,FEW,0.00,WeatherDisplay:10.37,2013-08-07 15:21:00,
2013-08-07 10:27:00,87.1,75.2,29.79,NW,315,0.0,0.0,68,0.00,OVC,FEW,0.00,WeatherDisplay:10.37,2013-08-07 15:27:00,
2013-08-07 10:32:00,87.6,73.9,29.80,North,0,0.0,0.0,64,0.00,OVC,FEW,0.00,WeatherDisplay:10.37,2013-08-07 15:32:00,
2013-08-07 10:38:00,87.4,73.8,29.79,North,0,0.0,0.0,64,0.00,OVC,FEW,0.00,WeatherDisplay:10.37,2013-08-07 15:38:00,
2013-08-07 10:44:00,87.3,75.8,29.79,SW,225,0.0,0.0,69,0.00,OVC,FEW,0.00,WeatherDisplay:10.37,2013-08-07 15:44:00,
2013-08-07 10:49:00,88.9,75.6,29.79,West,270,0.0,0.0,65,0.00,OVC,FEW,0.00,WeatherDisplay:10.37,2013-08-07 15:49:00,
2013-08-07 10:55:00,89.2,75.5,29.79,SW,225,0.0,0.0,64,0.00,OVC,FEW,0.00,WeatherDisplay:10.37,2013-08-07 15:55:00,
2013-08-07 11:00:00,88.5,73.8,29.80,North,0,2.2,5.8,62,0.00,OVC,FEW,0.00,WeatherDisplay:10.37,2013-08-07 16:00:00,
2013-08-07 11:06:00,86.0,74.6,29.80,NW,315,3.8,6.9,69,0.00,OVC,FEW,0.00,WeatherDisplay:10.37,2013-08-07 16:06:00,
2013-08-07 11:12:00,86.2,75.2,29.79,SW,225,0.7,8.1,70,0.00,OVC,FEW,0.00,WeatherDisplay:10.37,2013-08-07 16:12:00,
2013-08-07 11:17:00,87.8,76.4,29.79,West,270,0.0,1.2,69,0.00,OVC,FEW,0.00,WeatherDisplay:10.37,2013-08-07 16:17:00,
2013-08-07 11:23:00,88.9,76.0,29.80,NW,315,0.0,1.2,66,0.00,OVC,FEW,0.00,WeatherDisplay:10.37,2013-08-07 16:23:00,
2013-08-07 11:29:00,88.2,75.4,29.80,WSW,248,0.7,6.9,66,0.00,OVC,FEW,0.00,WeatherDisplay:10.37,2013-08-07 16:29:00,
2013-08-07 11:34:00,89.1,74.8,29.80,NNW,338,1.6,3.8,63,0.00,OVC,FEW,0.00,WeatherDisplay:10.37,2013-08-07 16:34:00,
2013-08-07 11:40:00,88.5,75.7,29.80,NW,315,0.0,3.5,66,0.00,OVC,FEW,0.00,WeatherDisplay:10.37,2013-08-07 16:40:00,
2013-08-07 11:45:00,88.5,75.2,29.80,NW,315,3.1,3.1,65,0.00,OVC,FEW,0.00,WeatherDisplay:10.37,2013-08-07 16:45:00,
2013-08-07 11:51:00,88.3,76.4,29.81,SW,225,0.0,2.3,68,0.00,OVC,FEW,0.00,WeatherDisplay:10.37,2013-08-07 16:51:00,
2013-08-07 11:57:00,89.2,76.4,29.80,NW,315,0.0,1.2,66,0.00,OVC,FEW,0.00,WeatherDisplay:10.37,2013-08-07 16:57:00,
2013-08-07 12:02:00,88.9,75.6,29.80,North,0,2.2,6.9,65,0.00,OVC,FEW,0.00,WeatherDisplay:10.37,2013-08-07 17:02:00,
2013-08-07 12:08:00,87.4,76.0,29.80,South,180,0.7,10.4,69,0.00,OVC,FEW,0.00,WeatherDisplay:10.37,2013-08-07 17:08:00,
2013-08-07 12:13:00,88.7,75.9,29.80,NW,315,0.7,2.3,66,0.00,OVC,FEW,0.00,WeatherDisplay:10.37,2013-08-07 17:13:00,
2013-08-07 12:19:00,88.3,76.0,29.80,NW,315,0.7,3.5,67,0.00,OVC,FEW,0.00,WeatherDisplay:10.37,2013-08-07 17:19:00,
2013-08-07 12:25:00,89.1,73.9,29.80,North,0,1.6,2.3,61,0.00,OVC,FEW,0.00,WeatherDisplay:10.37,2013-08-07 17:25:00,
2013-08-07 12:30:00,88.7,73.5,29.80,NW,315,1.6,8.1,61,0.00,OVC,FEW,0.00,WeatherDisplay:10.37,2013-08-07 17:30:00,
2013-08-07 12:36:00,88.0,72.8,29.80,NW,315,2.2,5.8,61,0.00,OVC,FEW,0.00,WeatherDisplay:10.37,2013-08-07 17:36:00,
2013-08-07 12:41:00,86.9,68.8,29.80,NW,315,4.5,8.1,55,0.00,OVC,FEW,0.00,WeatherDisplay:10.37,2013-08-07 17:41:00,
2013-08-07 12:47:00,86.9,71.8,29.80,NW,315,2.2,6.9,61,0.00,OVC,FEW,0.00,WeatherDisplay:10.37,2013-08-07 17:47:00,
2013-08-07 12:53:00,87.8,71.2,29.80,NW,315,1.6,5.8,58,0.00,OVC,FEW,0.00,WeatherDisplay:10.37,2013-08-07 17:53:00,
2013-08-07 12:58:00,88.9,72.7,29.80,SW,225,1.6,5.8,59,0.00,OVC,FEW,0.00,WeatherDisplay:10.37,2013-08-07 17:58:00,
2013-08-07 13:04:00,88.3,72.7,29.80,North,0,0.0,5.8,60,0.00,OVC,FEW,0.00,WeatherDisplay:10.37,2013-08-07 18:04:00,
2013-08-07 13:09:00,88.7,71.0,29.80,NW,315,0.7,5.8,56,0.00,OVC,FEW,0.00,WeatherDisplay:10.37,2013-08-07 18:09:00,
2013-08-07 13:15:00,88.5,71.9,29.80,North,0,1.6,5.8,58,0.00,OVC,FEW,0.00,WeatherDisplay:10.37,2013-08-07 18:15:00,
2013-08-07 13:21:00,88.0,71.3,29.80,NW,315,2.2,4.5,58,0.00,OVC,FEW,0.00,WeatherDisplay:10.37,2013-08-07 18:21:00,
2013-08-07 13:26:00,88.7,72.0,29.80,SW,225,1.6,4.6,58,0.00,OVC,FEW,0.00,WeatherDisplay:10.37,2013-08-07 18:26:00,
2013-08-07 13:32:00,89.1,71.3,29.80,NW,315,2.2,8.1,56,0.00,OVC,FEW,0.00,WeatherDisplay:10.37,2013-08-07 18:32:00,
2013-08-07 13:37:00,87.8,71.2,29.80,North,0,2.2,5.8,58,0.00,OVC,FEW,0.00,WeatherDisplay:10.37,2013-08-07 18:37:00,
2013-08-07 13:43:00,88.2,71.5,29.80,NW,315,3.1,5.8,58,0.00,OVC,FEW,0.00,WeatherDisplay:10.37,2013-08-07 18:43:00,
2013-08-07 13:49:00,87.8,71.2,29.80,NW,315,2.2,5.8,58,0.00,OVC,FEW,0.00,WeatherDisplay:10.37,2013-08-07 18:49:00,
2013-08-07 13:54:00,86.5,70.0,29.80,North,0,5.4,6.9,58,0.00,OVC,FEW,0.00,WeatherDisplay:10.37,2013-08-07 18:54:00,
2013-08-07 14:00:00,85.8,70.3,29.80,NW,315,4.5,11.5,60,0.00,OVC,FEW,0.00,WeatherDisplay:10.37,2013-08-07 19:00:00,
2013-08-07 14:05:00,85.3,69.8,29.80,NW,315,4.5,10.7,60,0.00,OVC,FEW,0.00,WeatherDisplay:10.37,2013-08-07 19:05:00,
2013-08-07 14:11:00,86.9,70.8,29.80,NW,315,3.1,8.1,59,0.00,OVC,FEW,0.00,WeatherDisplay:10.37,2013-08-07 19:11:00,
2013-08-07 14:17:00,86.7,70.2,29.80,NW,315,3.8,10.4,58,0.00,OVC,FEW,0.00,WeatherDisplay:10.37,2013-08-07 19:17:00,
2013-08-07 14:22:00,86.7,70.7,29.79,NW,315,3.8,8.1,59,0.00,OVC,FEW,0.00,WeatherDisplay:10.37,2013-08-07 19:22:00,
2013-08-07 14:28:00,86.7,70.2,29.80,North,0,3.1,10.4,58,0.00,OVC,FEW,0.00,WeatherDisplay:10.37,2013-08-07 19:28:00,
2013-08-07 14:33:00,87.3,69.1,29.80,NW,315,6.9,10.4,55,0.00,OVC,FEW,0.00,WeatherDisplay:10.37,2013-08-07 19:33:00,
2013-08-07 14:39:00,86.0,68.0,29.80,NW,315,6.0,12.7,55,0.00,OVC,FEW,0.00,WeatherDisplay:10.37,2013-08-07 19:39:00,
2013-08-07 14:45:00,86.4,68.8,29.80,North,0,3.8,10.4,56,0.00,OVC,FEW,0.00,WeatherDisplay:10.37,2013-08-07 19:45:00,
2013-08-07 14:50:00,86.9,66.0,29.80,NE,45,4.5,8.1,50,0.00,OVC,FEW,0.00,WeatherDisplay:10.37,2013-08-07 19:50:00,
2013-08-07 14:56:00,86.7,68.6,29.80,NW,315,2.2,12.7,55,0.00,OVC,FEW,0.00,WeatherDisplay:10.37,2013-08-07 19:56:00,
2013-08-07 15:01:00,86.7,69.1,29.80,North,0,4.5,10.4,56,0.00,OVC,FEW,0.00,WeatherDisplay:10.37,2013-08-07 20:01:00,
2013-08-07 15:07:00,86.9,70.3,29.80,NW,315,3.1,8.1,58,0.00,OVC,FEW,0.00,WeatherDisplay:10.37,2013-08-07 20:07:00,
2013-08-07 15:13:00,85.5,69.0,29.80,NW,315,3.1,8.1,58,0.00,OVC,FEW,0.00,WeatherDisplay:10.37,2013-08-07 20:13:00,
2013-08-07 15:18:00,85.3,67.8,29.80,North,0,6.0,13.8,56,0.00,OVC,FEW,0.00,WeatherDisplay:10.37,2013-08-07 20:18:00,
2013-08-07 15:24:00,85.6,68.1,29.80,NW,315,3.1,10.4,56,0.00,OVC,FEW,0.00,WeatherDisplay:10.37,2013-08-07 20:24:00,
2013-08-07 15:29:00,86.4,68.3,29.80,NW,315,3.1,5.8,55,0.00,OVC,FEW,0.00,WeatherDisplay:10.37,2013-08-07 20:29:00,
2013-08-07 15:35:00,86.4,67.2,29.80,North,0,3.8,10.7,53,0.00,OVC,FEW,0.00,WeatherDisplay:10.37,2013-08-07 20:35:00,
2013-08-07 15:41:00,85.5,66.4,29.80,WNW,292,6.0,12.7,53,0.00,OVC,FEW,0.00,WeatherDisplay:10.37,2013-08-07 20:41:00,
2013-08-07 15:46:00,86.0,68.5,29.80,North,0,4.5,5.8,56,0.00,OVC,FEW,0.00,WeatherDisplay:10.37,2013-08-07 20:46:00,
2013-08-07 15:52:00,85.3,67.3,29.80,NW,315,3.1,10.4,55,0.00,OVC,FEW,0.00,WeatherDisplay:10.37,2013-08-07 20:52:00,
2013-08-07 15:57:00,85.8,68.8,29.80,North,0,0.0,5.8,57,0.00,OVC,FEW,0.00,WeatherDisplay:10.37,2013-08-07 20:57:00,
2013-08-07 16:03:00,86.4,67.8,29.80,NW,315,2.2,5.8,54,0.00,OVC,FEW,0.00,WeatherDisplay:10.37,2013-08-07 21:03:00,
2013-08-07 16:09:00,85.6,68.1,29.80,NW,315,2.2,3.5,56,0.00,OVC,FEW,0.00,WeatherDisplay:10.37,2013-08-07 21:09:00,
2013-08-07 16:14:00,85.6,67.6,29.80,North,0,7.6,12.7,55,0.00,OVC,FEW,0.00,WeatherDisplay:10.37,2013-08-07 21:14:00,
2013-08-07 16:20:00,85.5,67.4,29.81,North,0,5.4,12.7,55,0.00,OVC,FEW,0.00,WeatherDisplay:10.37,2013-08-07 21:20:00,
2013-08-07 16:25:00,85.5,68.0,29.81,NW,315,4.5,9.2,56,0.00,OVC,FEW,0.00,WeatherDisplay:10.37,2013-08-07 21:25:00,
2013-08-07 16:31:00,85.6,66.5,29.81,NW,315,6.0,10.4,53,0.00,OVC,FEW,0.00,WeatherDisplay:10.37,2013-08-07 21:31:00,
2013-08-07 16:37:00,85.1,66.6,29.81,West,270,3.1,10.4,54,0.00,OVC,FEW,0.00,WeatherDisplay:10.37,2013-08-07 21:37:00,
2013-08-07 16:42:00,86.0,68.5,29.81,North,0,1.6,4.6,56,0.00,OVC,FEW,0.00,WeatherDisplay:10.37,2013-08-07 21:42:00,
2013-08-07 16:48:00,85.5,66.4,29.81,North,0,6.0,10.4,53,0.00,OVC,FEW,0.00,WeatherDisplay:10.37,2013-08-07 21:48:00,
2013-08-07 16:53:00,83.8,65.4,29.81,North,0,5.4,8.1,54,0.00,OVC,FEW,0.00,WeatherDisplay:10.37,2013-08-07 21:53:00,
2013-08-07 16:59:00,83.7,66.3,29.81,West,270,2.2,10.4,56,0.00,OVC,FEW,0.00,WeatherDisplay:10.37,2013-08-07 21:59:00,
2013-08-07 17:05:00,84.0,65.0,29.81,NW,315,3.8,6.9,53,0.00,OVC,FEW,0.00,WeatherDisplay:10.37,2013-08-07 22:05:00,
2013-08-07 17:10:00,84.6,65.0,29.81,North,0,3.8,6.9,52,0.00,OVC,FEW,0.00,WeatherDisplay:10.37,2013-08-07 22:10:00,
2013-08-07 17:16:00,84.4,65.9,29.81,NW,315,1.6,6.9,54,0.00,OVC,FEW,0.00,WeatherDisplay:10.37,2013-08-07 22:16:00,
2013-08-07 17:21:00,83.3,64.9,29.82,North,0,5.4,8.3,54,0.00,OVC,FEW,0.00,WeatherDisplay:10.37,2013-08-07 22:21:00,
2013-08-07 17:27:00,82.9,65.1,29.81,North,0,5.4,6.9,55,0.00,OVC,FEW,0.00,WeatherDisplay:10.37,2013-08-07 22:27:00,
2013-08-07 17:33:00,82.6,65.3,29.81,North,0,5.4,10.4,56,0.00,OVC,FEW,0.00,WeatherDisplay:10.37,2013-08-07 22:33:00,
2013-08-07 17:38:00,82.6,65.3,29.81,NW,315,2.2,8.1,56,0.00,OVC,FEW,0.00,WeatherDisplay:10.37,2013-08-07 22:38:00,
2013-08-07 17:44:00,82.6,64.8,29.82,NW,315,2.2,8.1,55,0.00,OVC,FEW,0.00,WeatherDisplay:10.37,2013-08-07 22:44:00,
2013-08-07 17:49:00,82.8,64.9,29.81,NW,315,3.8,8.1,55,0.00,OVC,FEW,0.00,WeatherDisplay:10.37,2013-08-07 22:49:00,
2013-08-07 17:55:00,82.9,65.1,29.81,North,0,3.8,6.9,55,0.00,OVC,FEW,0.00,WeatherDisplay:10.37,2013-08-07 22:55:00,
2013-08-07 18:01:00,82.8,66.0,29.82,North,0,5.4,8.1,57,0.00,OVC,FEW,0.00,WeatherDisplay:10.37,2013-08-07 23:01:00,
2013-08-07 18:06:00,82.2,66.0,29.82,NW,315,6.9,11.5,58,0.00,OVC,FEW,0.00,WeatherDisplay:10.37,2013-08-07 23:06:00,
2013-08-07 18:12:00,82.2,66.0,29.82,SE,135,4.5,9.2,58,0.00,OVC,FEW,0.00,WeatherDisplay:10.37,2013-08-07 23:12:00,
2013-08-07 18:17:00,81.7,65.5,29.82,North,0,3.8,8.1,58,0.00,OVC,FEW,0.00,WeatherDisplay:10.37,2013-08-07 23:17:00,
2013-08-07 18:23:00,81.5,65.8,29.82,NE,45,0.7,5.8,59,0.00,OVC,FEW,0.00,WeatherDisplay:10.37,2013-08-07 23:23:00,
2013-08-07 18:29:00,81.7,66.0,29.83,North,0,3.1,4.5,59,0.00,OVC,FEW,0.00,WeatherDisplay:10.37,2013-08-07 23:29:00,
2013-08-07 18:34:00,81.9,66.1,29.83,North,0,2.2,4.6,59,0.00,OVC,FEW,0.00,WeatherDisplay:10.37,2013-08-07 23:34:00,
2013-08-07 18:40:00,82.0,66.3,29.83,NW,315,3.1,5.8,59,0.00,OVC,FEW,0.00,WeatherDisplay:10.37,2013-08-07 23:40:00,
2013-08-07 18:45:00,81.7,65.5,29.83,NW,315,2.2,4.6,58,0.00,OVC,FEW,0.00,WeatherDisplay:10.37,2013-08-07 23:45:00,
2013-08-07 18:51:00,81.3,65.6,29.83,NW,315,5.4,12.7,59,0.00,OVC,FEW,0.00,WeatherDisplay:10.37,2013-08-07 23:51:00,
2013-08-07 18:57:00,81.0,65.3,29.84,West,270,4.5,5.8,59,0.00,OVC,FEW,0.00,WeatherDisplay:10.37,2013-08-07 23:57:00,
2013-08-07 19:02:00,80.8,66.5,29.83,North,0,2.2,7.6,62,0.00,OVC,FEW,0.00,WeatherDisplay:10.37,2013-08-08 00:02:00,
2013-08-07 19:08:00,80.6,66.8,29.84,NW,315,3.1,8.1,63,0.00,OVC,FEW,0.00,WeatherDisplay:10.37,2013-08-08 00:08:00,
2013-08-07 19:13:00,80.4,67.1,29.84,North,0,3.1,5.8,64,0.00,OVC,FEW,0.00,WeatherDisplay:10.37,2013-08-08 00:13:00,
2013-08-07 19:19:00,79.9,66.2,29.85,NW,315,3.8,10.4,63,0.00,OVC,FEW,0.00,WeatherDisplay:10.37,2013-08-08 00:19:00,
2013-08-07 19:25:00,79.5,66.7,29.85,North,0,3.1,6.9,65,0.00,OVC,FEW,0.00,WeatherDisplay:10.37,2013-08-08 00:25:00,
2013-08-07 19:30:00,79.2,66.8,29.84,NW,315,2.2,8.1,66,0.00,OVC,FEW,0.00,WeatherDisplay:10.37,2013-08-08 00:30:00,
2013-08-07 19:36:00,79.0,67.1,29.85,North,0,2.2,10.4,67,0.00,OVC,FEW,0.00,WeatherDisplay:10.37,2013-08-08 00:36:00,
2013-08-07 19:41:00,78.6,67.6,29.85,North,0,3.8,5.8,69,0.00,OVC,FEW,0.00,WeatherDisplay:10.37,2013-08-08 00:41:00,
2013-08-07 19:47:00,78.4,67.8,29.85,North,0,3.8,8.1,70,0.00,OVC,FEW,0.00,WeatherDisplay:10.37,2013-08-08 00:47:00,
2013-08-07 19:53:00,78.1,67.9,29.86,North,0,4.5,8.1,71,0.00,OVC,FEW,0.00,WeatherDisplay:10.37,2013-08-08 00:53:00,
2013-08-07 19:58:00,77.5,67.4,29.86,NW,315,2.2,10.4,71,0.00,OVC,FEW,0.00,WeatherDisplay:10.37,2013-08-08 00:58:00,
2013-08-07 20:04:00,77.2,67.5,29.86,North,0,3.1,6.9,72,0.00,OVC,FEW,0.00,WeatherDisplay:10.37,2013-08-08 01:04:00,
2013-08-07 20:09:00,76.6,67.3,29.86,NW,315,3.1,8.1,73,0.00,OVC,FEW,0.00,WeatherDisplay:10.37,2013-08-08 01:09:00,
2013-08-07 20:15:00,76.3,67.0,29.86,North,0,1.6,5.8,73,0.00,OVC,FEW,0.00,WeatherDisplay:10.37,2013-08-08 01:15:00,
2013-08-07 20:21:00,75.9,67.0,29.87,North,0,3.1,6.9,74,0.00,OVC,FEW,0.00,WeatherDisplay:10.37,2013-08-08 01:21:00,
2013-08-07 20:26:00,75.6,66.3,29.87,North,0,5.4,10.4,73,0.00,OVC,FEW,0.00,WeatherDisplay:10.37,2013-08-08 01:26:00,
2013-08-07 20:32:00,75.2,66.3,29.88,NW,315,3.1,10.4,74,0.00,OVC,FEW,0.00,WeatherDisplay:10.37,2013-08-08 01:32:00,
2013-08-07 20:37:00,74.7,66.2,29.88,NW,315,5.4,9.2,75,0.00,OVC,FEW,0.00,WeatherDisplay:10.37,2013-08-08 01:37:00,
2013-08-07 20:43:00,74.3,65.9,29.88,North,0,3.1,6.9,75,0.00,OVC,FEW,0.00,WeatherDisplay:10.37,2013-08-08 01:43:00,
2013-08-07 20:49:00,74.3,65.9,29.88,North,0,3.1,4.6,75,0.00,OVC,FEW,0.00,WeatherDisplay:10.37,2013-08-08 01:49:00,
2013-08-07 20:54:00,73.6,65.9,29.88,North,0,2.2,9.2,77,0.00,OVC,FEW,0.00,WeatherDisplay:10.37,2013-08-08 01:54:00,
2013-08-07 21:00:00,73.4,66.1,29.88,North,0,3.1,6.9,78,0.00,OVC,FEW,0.00,WeatherDisplay:10.37,2013-08-08 02:00:00,
2013-08-07 21:05:00,73.0,66.1,29.88,North,0,2.2,8.1,79,0.00,OVC,FEW,0.00,WeatherDisplay:10.37,2013-08-08 02:05:00,
2013-08-07 21:11:00,72.5,66.0,29.89,NW,315,3.8,10.4,80,0.00,OVC,FEW,0.00,WeatherDisplay:10.37,2013-08-08 02:11:00,
2013-08-07 21:17:00,72.3,66.2,29.89,NW,315,3.1,9.2,81,0.00,OVC,FEW,0.00,WeatherDisplay:10.37,2013-08-08 02:17:00,
2013-08-07 21:22:00,72.1,66.0,29.89,North,0,3.1,6.9,81,0.00,OVC,FEW,0.00,WeatherDisplay:10.37,2013-08-08 02:22:00,
2013-08-07 21:28:00,72.0,65.8,29.89,North,0,3.8,5.8,81,0.00,OVC,FEW,0.00,WeatherDisplay:10.37,2013-08-08 02:28:00,
2013-08-07 21:33:00,71.8,66.0,29.89,NW,315,2.2,5.8,82,0.00,OVC,FEW,0.00,WeatherDisplay:10.37,2013-08-08 02:33:00,
2013-08-07 21:39:00,71.4,65.6,29.89,North,0,0.7,8.1,82,0.00,OVC,FEW,0.00,WeatherDisplay:10.37,2013-08-08 02:39:00,
2013-08-07 21:45:00,71.2,65.5,29.90,North,0,0.7,4.6,82,0.00,OVC,FEW,0.00,WeatherDisplay:10.37,2013-08-08 02:45:00,
2013-08-07 21:50:00,71.2,65.1,29.90,NW,315,1.6,5.8,81,0.00,OVC,FEW,0.00,WeatherDisplay:10.37,2013-08-08 02:50:00,
2013-08-07 21:56:00,71.2,65.1,29.90,NE,45,0.7,5.8,81,0.00,OVC,FEW,0.00,WeatherDisplay:10.37,2013-08-08 02:56:00,
2013-08-07 22:01:00,71.1,64.6,29.90,NW,315,2.2,5.8,80,0.00,OVC,FEW,0.00,WeatherDisplay:10.37,2013-08-08 03:01:00,
2013-08-07 22:07:00,71.1,64.9,29.90,North,0,0.7,5.8,81,0.00,OVC,FEW,0.00,WeatherDisplay:10.37,2013-08-08 03:07:00,
2013-08-07 22:13:00,70.9,64.8,29.90,North,0,2.2,5.8,81,0.00,OVC,FEW,0.00,WeatherDisplay:10.37,2013-08-08 03:13:00,
2013-08-07 22:18:00,70.5,64.4,29.90,North,0,2.2,4.5,81,0.00,OVC,FEW,0.00,WeatherDisplay:10.37,2013-08-08 03:18:00,
2013-08-07 22:24:00,70.3,64.6,29.91,North,0,1.6,3.5,82,0.00,OVC,FEW,0.00,WeatherDisplay:10.37,2013-08-08 03:24:00,
2013-08-07 22:29:00,70.3,64.6,29.90,NE,45,0.0,3.5,82,0.00,OVC,FEW,0.00,WeatherDisplay:10.37,2013-08-08 03:29:00,
2013-08-07 22:35:00,70.2,64.4,29.90,North,0,3.8,5.8,82,0.00,OVC,FEW,0.00,WeatherDisplay:10.37,2013-08-08 03:35:00,
2013-08-07 22:41:00,70.2,64.8,29.90,North,0,3.1,3.5,83,0.00,OVC,FEW,0.00,WeatherDisplay:10.37,2013-08-08 03:41:00,
2013-08-07 22:46:00,70.0,64.6,29.90,SW,225,0.7,4.6,83,0.00,OVC,FEW,0.00,WeatherDisplay:10.37,2013-08-08 03:46:00,
2013-08-07 22:52:00,69.8,64.4,29.90,NW,315,2.2,5.8,83,0.00,OVC,FEW,0.00,WeatherDisplay:10.37,2013-08-08 03:52:00,
2013-08-07 22:57:00,69.6,64.6,29.90,North,0,2.2,5.8,84,0.00,OVC,FEW,0.00,WeatherDisplay:10.37,2013-08-08 03:57:00,
2013-08-07 23:01:00,69.6,64.6,29.90,NW,315,1.6,4.6,84,0.00,OVC,FEW,0.00,WeatherDisplay:10.37,2013-08-08 04:01:00,
2013-08-07 23:02:00,69.4,64.4,29.90,NW,315,1.6,4.6,84,0.00,OVC,FEW,0.00,WeatherDisplay:10.37,2013-08-08 04:02:00,
2013-08-07 23:05:00,69.4,64.4,29.91,North,0,0.0,4.6,84,0.00,OVC,FEW,0.00,WeatherDisplay:10.37,2013-08-08 04:05:00,
2013-08-07 23:11:00,69.3,64.2,29.90,NW,315,0.0,3.5,84,0.00,OVC,FEW,0.00,WeatherDisplay:10.37,2013-08-08 04:11:00,
2013-08-07 23:17:00,69.1,64.0,29.91,NW,315,1.6,3.5,84,0.00,OVC,FEW,0.00,WeatherDisplay:10.37,2013-08-08 04:17:00,
2013-08-07 23:22:00,69.1,64.0,29.91,North,0,2.2,3.8,84,0.00,OVC,FEW,0.00,WeatherDisplay:10.37,2013-08-08 04:22:00,
2013-08-07 23:28:00,68.9,63.9,29.91,North,0,1.6,3.5,84,0.00,OVC,FEW,0.00,WeatherDisplay:10.37,2013-08-08 04:28:00,
2013-08-07 23:33:00,68.9,63.9,29.91,NW,315,3.1,4.6,84,0.00,OVC,FEW,0.00,WeatherDisplay:10.37,2013-08-08 04:33:00,
2013-08-07 23:39:00,68.7,63.7,29.91,NW,315,1.6,5.8,84,0.00,OVC,FEW,0.00,WeatherDisplay:10.37,2013-08-08 04:39:00,
2013-08-07 23:45:00,68.7,63.7,29.91,North,0,2.2,5.8,84,0.00,OVC,FEW,0.00,WeatherDisplay:10.37,2013-08-08 04:45:00,
2013-08-07 23:50:00,68.5,63.5,29.91,NW,315,0.0,5.8,84,0.00,OVC,FEW,0.00,WeatherDisplay:10.37,2013-08-08 04:50:00,
2013-08-07 23:56:00,68.4,63.3,29.91,NW,315,0.7,3.5,84,0.00,OVC,FEW,0.00,WeatherDisplay:10.37,2013-08-08 04:56:00,